Tracking 18945 objects as of 20-Jan-2018
HD Live streaming from Space Station
objects crossing your sky now

IRIDIUM 45

Track IRIDIUM 45 now!
10-day predictions
IRIDIUM 45 is classified as:


NORAD ID: 25104
Int'l Code: 1997-082A
Perigee: 783.8 km
Apogee: 785.9 km
Inclination: 86.4 °
Period: 100.4 minutes
Semi major axis: 7155 km
RCS: 3.9041 m2 (large)
Launch date: December 20, 1997
Source: United States (US)
Launch site: AIR FORCE WESTERN TEST RANGE (AFWTR)
aabbcc
Your satellite tracking list
Your tracking list is empty




NASA's NSSDC Master Catalog

Two Line Element Set (TLE):
1 25104U 97082A   18020.46060186 -.00000040  00000-0 -21487-4 0  9992
2 25104  86.3967 196.3951 0001440  63.9008 296.2336 14.34212892 51511
Source of the keplerian elements: AFSPC